Weather History for Athens, OH

Change the Weather History Date:

Monday, August 25, 2014

  Actual Average (KPKB) Record (KPKB)
Temperature  
Mean Temperature 74 °F 73 °F  
Max Temperature 86 °F 84 °F 95 °F (1948)
Min Temperature 63 °F 62 °F 49 °F (1952)
Degree Days  
Heating Degree Days 0 0  
Month to date heating degree days 0  
Since 1 June heating degree days 20  
Since 1 July heating degree days 1  
Cooling Degree Days 10 8  
Month to date cooling degree days 218  
Year to date cooling degree days 785  
Since 1 June cooling degree days 701  
Growing Degree Days 24 (Base 50)    
Moisture  
Dew Point 63 °F    
Average Humidity 71    
Maximum Humidity 93    
Minimum Humidity 43    
Precipitation  
Precipitation 0.00 in 0.10 in 1.27 in (2011)
Month to date precipitation 2.94  
Year to date precipitation 28.12  
Snow  
Snow 0.00 in - - ()
Month to date snowfall  
Since 1 July snowfall  
Since 1 September snowfall  
Snow Depth -    
Sea Level Pressure  
Sea Level Pressure 30.10 in    
Wind  
Wind Speed 1 mph (SE)    
Max Wind Speed 8 mph    
Max Gust Speed -    
Visibility 10 miles    
Events      
T = Trace of Precipitation, MM = Missing Value Source: NWS Daily Summary

Daily Weather History Graph

Daily Weather History Graph

Search for Another Location

Airport:

Trip Planner

Search our weather history database for the weather conditions in past years. The results will help you decide how hot, cold, wet, or windy it might be!

Date:

Astronomy

Aug. 25, 2014 Rise Set
Actual Time 6:51 AM EDT 8:10 PM EDT
Civil Twilight 6:23 AM EDT 8:37 PM EDT
Nautical Twilight 5:49 AM EDT 9:11 PM EDT
Astronomical Twilight 5:14 AM EDT 9:46 PM EDT
Moon 6:54 AM EDT (8/25) 8:00 PM EDT (8/25)
Length of Visible Light 14h 14m
Length of Day
13h 19m
New Moon, 0% of the Moon is Illuminated
Aug 25
New Moon
Sep 2
First Quarter
Sep 8
Full
Sep 15
Last Quarter
Sep 24
New

Hourly Weather History & Observations

Time (EDT) Temp. Heat Index Dew Point Humidity Pressure Visibility Wind Dir Wind Speed Gust Speed Precip Events Conditions
12:15 AM 71.6 °F - 68.0 °F 88% 30.08 in 10.0 mi Calm Calm - N/A   Clear
12:35 AM 72.9 °F - 67.3 °F 83% 30.08 in 10.0 mi ESE 4.6 mph - N/A   Clear
12:55 AM 73.0 °F - 66.2 °F 79% 30.09 in 10.0 mi ESE 3.5 mph - N/A   Scattered Clouds
1:15 AM 72.5 °F - 65.7 °F 79% 30.09 in 10.0 mi Calm Calm - N/A   Scattered Clouds
1:35 AM 72.0 °F - 65.3 °F 79% 30.09 in 10.0 mi SSE 3.5 mph - N/A   Clear
1:55 AM 71.6 °F - 64.8 °F 79% 30.09 in 10.0 mi Calm Calm - N/A   Clear
2:15 AM 70.9 °F - 64.4 °F 80% 30.09 in 10.0 mi Calm Calm - N/A   Clear
2:35 AM 69.1 °F - 64.4 °F 85% 30.09 in 10.0 mi Calm Calm - N/A   Clear
2:55 AM 68.9 °F - 64.4 °F 86% 30.09 in 10.0 mi Calm Calm - N/A   Clear
3:15 AM 68.0 °F - 63.9 °F 87% 30.08 in 10.0 mi Calm Calm - N/A   Scattered Clouds
3:35 AM 67.6 °F - 64.4 °F 89% 30.08 in 10.0 mi Calm Calm - N/A   Mostly Cloudy
3:55 AM 68.9 °F - 64.6 °F 86% 30.08 in 10.0 mi Calm Calm - N/A   Mostly Cloudy
4:15 AM 69.3 °F - 63.7 °F 82% 30.08 in 10.0 mi Calm Calm - N/A   Scattered Clouds
4:35 AM 68.7 °F - 63.3 °F 83% 30.08 in 10.0 mi Calm Calm - N/A   Clear
4:55 AM 68.0 °F - 62.8 °F 83% 30.08 in 10.0 mi Calm Calm - N/A   Clear
5:15 AM 68.0 °F - 62.8 °F 83% 30.08 in 10.0 mi Calm Calm - N/A   Clear
5:35 AM 66.4 °F - 62.4 °F 87% 30.08 in 10.0 mi Calm Calm - N/A   Clear
5:55 AM 64.9 °F - 61.9 °F 90% 30.09 in 10.0 mi Calm Calm - N/A   Clear
6:15 AM 64.4 °F - 61.9 °F 92% 30.09 in 10.0 mi Calm Calm - N/A   Clear
6:35 AM 64.0 °F - 61.5 °F 91% 30.10 in 10.0 mi Calm Calm - N/A   Scattered Clouds
6:55 AM 63.9 °F - 61.9 °F 93% 30.11 in 10.0 mi Calm Calm - N/A   Overcast
7:15 AM 64.8 °F - 62.8 °F 93% 30.11 in 10.0 mi Calm Calm - N/A   Overcast
7:35 AM 65.1 °F - 62.8 °F 92% 30.11 in 10.0 mi Calm Calm - N/A   Scattered Clouds
7:55 AM 64.9 °F - 62.8 °F 93% 30.12 in 10.0 mi Calm Calm - N/A   Clear
8:15 AM 65.1 °F - 62.8 °F 92% 30.13 in 10.0 mi Calm Calm - N/A   Clear
8:35 AM 66.2 °F - 63.7 °F 92% 30.13 in 10.0 mi Calm Calm - N/A   Clear
8:55 AM 67.8 °F - 63.0 °F 84% 30.13 in 10.0 mi Calm Calm - N/A   Scattered Clouds
9:15 AM 68.7 °F - 62.8 °F 81% 30.13 in 10.0 mi Calm Calm - N/A   Scattered Clouds
9:55 AM 71.1 °F - 62.1 °F 73% 30.14 in 10.0 mi SSE 3.5 mph - N/A   Scattered Clouds
10:35 AM 73.8 °F - 61.7 °F 66% 30.14 in 10.0 mi Calm Calm - N/A   Clear
10:55 AM 74.5 °F - 61.7 °F 64% 30.14 in 10.0 mi SE 5.8 mph - N/A   Clear
11:15 AM 75.4 °F - 61.5 °F 62% 30.14 in 10.0 mi South 5.8 mph - N/A   Scattered Clouds
11:35 AM 77.2 °F - 62.4 °F 60% 30.14 in 10.0 mi SSE 4.6 mph - N/A   Scattered Clouds
11:55 AM 78.3 °F - 62.8 °F 59% 30.13 in 10.0 mi SSE 4.6 mph - N/A   Clear
12:15 PM 79.7 °F - 62.4 °F 55% 30.13 in 10.0 mi South 3.5 mph - N/A   Clear
12:35 PM 80.2 °F 81.5 °F 62.8 °F 55% 30.13 in 10.0 mi South 5.8 mph - N/A   Clear
12:55 PM 81.1 °F 82.1 °F 61.9 °F 52% 30.13 in 10.0 mi SSE 5.8 mph - N/A   Clear
1:15 PM 81.7 °F 82.7 °F 62.2 °F 52% 30.12 in 10.0 mi East 4.6 mph - N/A   Clear
1:35 PM 82.6 °F 83.4 °F 62.1 °F 50% 30.12 in 10.0 mi Calm Calm - N/A   Clear
1:55 PM 83.3 °F 83.5 °F 60.4 °F 46% 30.11 in 10.0 mi East 4.6 mph - N/A   Clear
2:15 PM 82.9 °F 83.2 °F 60.4 °F 46% 30.11 in 10.0 mi NE 4.6 mph - N/A   Clear
2:35 PM 83.5 °F 83.9 °F 61.2 °F 47% 30.11 in 10.0 mi SSE 4.6 mph - N/A   Scattered Clouds
2:55 PM 83.3 °F 83.7 °F 61.3 °F 47% 30.10 in 10.0 mi Calm Calm - N/A   Overcast
3:15 PM 83.5 °F 84.1 °F 61.7 °F 48% 30.10 in 10.0 mi East 4.6 mph - N/A   Overcast
3:35 PM 83.3 °F 83.7 °F 61.0 °F 47% 30.09 in 10.0 mi SE 3.5 mph - N/A   Mostly Cloudy
3:55 PM 84.2 °F 84.8 °F 61.7 °F 47% 30.09 in 10.0 mi SSE 3.5 mph - N/A   Overcast
4:15 PM 84.4 °F 84.6 °F 60.6 °F 45% 30.09 in 10.0 mi SSE 3.5 mph - N/A   Scattered Clouds
4:35 PM 84.9 °F 85.2 °F 61.2 °F 45% 30.08 in 10.0 mi SSE 3.5 mph - N/A   Clear
4:55 PM 86.0 °F 86.1 °F 61.3 °F 43% 30.08 in 10.0 mi East 8.1 mph - N/A   Scattered Clouds
5:15 PM 85.1 °F 85.2 °F 60.8 °F 44% 30.09 in 10.0 mi East 4.6 mph - N/A   Scattered Clouds
5:35 PM 84.7 °F 84.8 °F 60.8 °F 44% 30.09 in 10.0 mi Calm Calm - N/A   Clear
5:55 PM 84.7 °F 84.8 °F 60.6 °F 44% 30.09 in 10.0 mi East 4.6 mph - N/A   Scattered Clouds
6:15 PM 84.4 °F 84.4 °F 60.1 °F 44% 30.09 in 10.0 mi ESE 4.6 mph - N/A   Scattered Clouds
6:35 PM 82.0 °F 82.5 °F 60.6 °F 48% 30.09 in 10.0 mi Calm Calm - N/A   Clear
6:55 PM 81.9 °F 82.8 °F 62.1 °F 51% 30.09 in 10.0 mi Calm Calm - N/A   Scattered Clouds
7:15 PM 81.9 °F 82.8 °F 61.9 °F 51% 30.08 in 10.0 mi East 3.5 mph - N/A   Mostly Cloudy
7:35 PM 80.4 °F 81.6 °F 62.6 °F 54% 30.09 in 10.0 mi East 3.5 mph - N/A   Scattered Clouds
7:55 PM 79.0 °F - 62.8 °F 57% 30.09 in 10.0 mi Calm Calm - N/A   Clear
8:15 PM 75.0 °F - 65.5 °F 72% 30.09 in 10.0 mi Calm Calm - N/A   Clear
8:35 PM 72.7 °F - 64.4 °F 75% 30.09 in 10.0 mi Calm Calm - N/A   Clear
8:55 PM 70.7 °F - 64.4 °F 80% 30.09 in 10.0 mi Calm Calm - N/A   Clear
9:15 PM 69.8 °F - 63.9 °F 81% 30.09 in 10.0 mi Calm Calm - N/A   Clear
9:35 PM 68.9 °F - 63.7 °F 83% 30.09 in 10.0 mi Calm Calm - N/A   Clear
9:55 PM 68.4 °F - 63.7 °F 85% 30.09 in 10.0 mi Calm Calm - N/A   Clear
10:15 PM 67.5 °F - 62.8 °F 85% 30.09 in 10.0 mi Calm Calm - N/A   Clear
10:35 PM 66.9 °F - 63.1 °F 88% 30.11 in 10.0 mi Calm Calm - N/A   Clear
10:55 PM 66.4 °F - 63.3 °F 90% 30.11 in 10.0 mi Calm Calm - N/A   Clear
11:15 PM 66.0 °F - 63.0 °F 90% 30.10 in 10.0 mi Calm Calm - N/A   Clear
11:35 PM 65.8 °F - 63.3 °F 92% 30.10 in 10.0 mi Calm Calm - N/A   Clear